date,time,DOY,Ta_1_1_1,Pa_1_1_1,RH_1_1_1,LWin_1_1_1,LWout_1_1_1,SWin_1_1_1,SWout_1_1_1,PPFD_1_1_1,MWS_1_1_1,WD_1_1_1,SWC_1_1_1,Ts_1_1_1
[yyyy-mm-dd],[HH:MM],[ddd.ddd],[K],[Pa],[%],[W+1m-2],[W+1m-2],[W+1m-2],[W+1m-2],[µmol+1m-2s-1],[m+1s-1],[deg],[m+3m-3],[K]
2018-10-05,00:30,278.020,275.64100000000013,95616.866666666669,69.141666666666680,325.84966666666674,290.88566666666668,0.49966666666666665,-2.1773333333333325,-2.99999999999999963E-003,2.5266666666666668,47.455666666666659,0.32000000000000012,281.64833333333337
2018-10-05,01:00,278.041,275.30633333333338,95617.300000000003,71.750666666666646,323.77733333333339,284.59433333333334,0.69933333333333336,-2.4973333333333332,-2.66666666666666718E-002,1.7999999999999998,57.677999999999997,0.32000000000000012,281.57800000000009
2018-10-05,01:30,278.062,274.99533333333329,95616.933333333334,71.968666666666678,322.15333333333342,279.60000000000002,0.86933333333333340,-2.7043333333333335,7.66666666666666365E-003,1.9933333333333327,36.322000000000003,0.32000000000000012,281.51199999999994
2018-10-05,02:00,278.083,274.75866666666673,95619.766666666663,73.989000000000004,320.57966666666658,280.61233333333331,0.98866666666666703,-2.4260000000000002,-1.00000000000000002E-003,1.4966666666666666,37.701333333333331,0.32000000000000012,281.44133333333332
2018-10-05,02:30,278.104,274.48900000000009,95588.966666666660,74.241666666666646,320.36833333333340,287.56533333333334,0.61433333333333318,-1.9903333333333331,3.00000000000000006E-003,1.5933333333333335,27.922666666666657,0.32000000000000012,281.37066666666669
2018-10-05,03:00,278.124,274.45333333333343,95535.233333333337,72.641000000000020,321.24666666666667,300.98833333333329,0.42766666666666669,-1.1309999999999998,0.0000000000000000,2.4866666666666668,25.056333333333331,0.32000000000000012,281.30033333333336
2018-10-05,03:30,278.145,274.53866666666676,95515.633333333331,72.051333333333332,322.57499999999999,316.36300000000000,0.22533333333333339,-0.27133333333333343,2.00000000000000004E-003,1.2200000000000000,22.944000000000003,0.32000000000000012,281.22900000000004
2018-10-05,04:00,278.166,274.66366666666664,95516.399999999994,71.669000000000011,323.08000000000004,316.86433333333332,0.18566666666666673,-0.30133333333333329,2.33333333333333379E-002,1.7600000000000000,24.788666666666664,0.32000000000000012,281.16566666666665
2018-10-05,04:30,278.187,274.93100000000010,95478.899999999994,72.470333333333329,324.18166666666673,318.25699999999995,0.19200000000000006,-0.26933333333333331,1.10000000000000028E-002,2.9033333333333333,50.977666666666671,0.32000000000000012,281.10033333333337
2018-10-05,05:00,278.208,275.05233333333342,95471.333333333328,75.038666666666657,324.39666666666665,319.51233333333329,0.16866666666666669,-0.48166666666666658,9.00000000000000105E-003,2.7766666666666668,50.645000000000010,0.30999999999999989,281.04466666666679
2018-10-05,05:30,278.229,274.91433333333322,95424.866666666669,79.369333333333330,323.15833333333342,320.95533333333327,0.54000000000000015,-1.4386666666666668,6.33333333333333318E-003,2.5766666666666667,42.110666666666674,0.30999999999999989,280.97600000000000
2018-10-05,06:00,278.249,274.82433333333336,95502.899999999994,82.272999999999982,322.32700000000000,321.06733333333341,0.86433333333333329,-1.2413333333333334,5.00000000000000010E-003,1.6233333333333335,37.221999999999994,0.30999999999999989,280.88366666666661
2018-10-05,06:30,278.270,274.71333333333348,95488.966666666660,84.006333333333316,321.18699999999995,319.86366666666680,0.84399999999999986,-1.1266666666666667,-4.00000000000000008E-003,1.7366666666666659,36.077333333333328,0.30999999999999989,280.80400000000009
2018-10-05,07:00,278.291,274.42633333333316,95501.300000000003,86.480333333333320,320.37333333333328,318.72533333333337,0.60566666666666658,-0.62699999999999989,5.00000000000000010E-003,2.3366666666666664,65.745000000000005,0.30999999999999989,280.69899999999996
2018-10-05,07:30,278.312,274.18566666666658,95516.899999999994,86.766000000000005,319.56299999999999,318.63066666666674,0.68066666666666653,-1.0760000000000001,-3.00000000000000006E-003,2.1699999999999999,51.667666666666676,0.30999999999999989,280.58266666666674
2018-10-05,08:00,278.333,273.86099999999993,95482.166666666672,87.726000000000028,318.46533333333343,316.45799999999997,0.87166666666666659,-1.6496666666666664,1.00000000000000002E-003,2.0900000000000003,34.477666666666664,0.30999999999999989,280.49500000000000
2018-10-05,08:30,278.354,273.52100000000002,95431.033333333340,88.823333333333309,316.96566666666666,315.30099999999987,0.97833333333333328,-0.21966666666666659,-6.00000000000000012E-003,1.5866666666666667,20.189000000000000,0.31266666666666665,280.41333333333330
2018-10-05,09:00,278.374,273.34333333333336,95387.899999999994,89.260333333333364,316.45766666666674,315.89633333333330,0.69233333333333336,6.66666666666666796E-003,-1.40000000000000055E-002,2.6099999999999994,53.833333333333336,0.32000000000000012,280.29566666666676
2018-10-05,09:30,278.395,273.25700000000018,95321.066666666666,89.519999999999968,316.33566666666667,315.94199999999995,0.59533333333333327,1.13333333333333341E-002,0.0000000000000000,3.3100000000000005,48.710666666666661,0.32000000000000012,280.16700000000003
2018-10-05,10:00,278.416,273.33466666666675,95342.466666666660,89.471999999999994,316.48666666666662,315.84699999999998,0.83499999999999985,-2.13333333333333361E-002,-7.00000000000000015E-003,3.9033333333333338,72.021999999999991,0.32000000000000012,280.02600000000001
2018-10-05,10:30,278.437,273.30900000000008,95264.133333333331,89.376000000000005,316.43333333333339,315.82300000000009,0.66366666666666674,-0.13566666666666674,1.00000000000000019E-002,2.9199999999999999,46.023000000000003,0.32000000000000012,279.89500000000004
2018-10-05,11:00,278.458,273.32566666666656,95232.733333333337,89.361000000000018,316.56533333333340,315.25066666666669,0.56033333333333324,-0.35833333333333334,1.00000000000000002E-003,3.5066666666666668,74.555666666666667,0.32966666666666666,279.77066666666661
2018-10-05,11:30,278.479,273.50566666666685,95270.433333333334,89.040999999999983,317.00066666666658,314.37600000000009,0.66166666666666674,-0.28966666666666691,-5.00000000000000010E-003,4.0699999999999994,70.911000000000001,0.33000000000000002,279.66199999999998
2018-10-05,12:00,278.499,273.45333333333343,95199.933333333334,89.155000000000001,316.91799999999995,316.01533333333339,0.51099999999999990,0.16233333333333336,0.43733333333333335,4.9066666666666663,67.366333333333330,0.33599999999999997,279.56100000000009
2018-10-05,12:30,278.520,273.54666666666685,95162.733333333337,89.481333333333325,317.49799999999988,317.25799999999992,1.1083333333333336,4.7576666666666672,8.4670000000000023,4.5366666666666662,61.944333333333347,0.33999999999999991,279.45399999999995
2018-10-05,13:00,278.541,273.62766666666658,95236.199999999997,89.343000000000032,318.15499999999997,317.98233333333332,2.9926666666666666,17.945000000000000,34.977999999999994,2.0666666666666664,31.733000000000001,0.34666666666666646,279.37699999999990
2018-10-05,13:30,278.562,273.59533333333349,95230.933333333334,88.716666666666654,317.87099999999987,316.69999999999999,2.2056666666666662,12.819666666666668,28.967000000000002,2.6000000000000001,39.077333333333335,0.34999999999999981,279.32566666666673
2018-10-05,14:00,278.583,273.54466666666684,95174.466666666660,88.568000000000012,317.79866666666669,317.11899999999997,4.8683333333333332,30.485333333333326,65.258999999999986,2.5466666666666673,29.733000000000001,0.34999999999999981,279.27500000000015
2018-10-05,14:30,278.604,273.62333333333322,95153.500000000000,87.972666666666655,318.32200000000006,318.13133333333343,6.4426666666666677,41.437000000000005,89.674666666666681,3.3900000000000006,44.867000000000004,0.34999999999999981,279.22300000000001
2018-10-05,15:00,278.624,273.73633333333339,95122.800000000003,88.049333333333337,319.25633333333337,319.24633333333333,9.7253333333333352,63.965333333333326,137.44966666666667,4.3033333333333328,62.356000000000002,0.34999999999999981,279.19066666666657
2018-10-05,15:30,278.645,273.84133333333335,95085.500000000000,87.843333333333334,320.00033333333334,320.16066666666671,13.968333333333332,93.728333333333339,198.88433333333333,4.6466666666666665,71.532999999999987,0.34999999999999981,279.18599999999998
2018-10-05,16:00,278.666,274.04866666666675,95050.066666666666,86.907666666666685,321.80599999999993,322.33466666666664,24.509333333333345,161.37433333333334,328.00166666666678,2.7766666666666668,31.355666666666668,0.34999999999999981,279.19266666666653
2018-10-05,16:30,278.687,274.36700000000008,95012.666666666672,88.705333333333343,323.21866666666665,323.66533333333336,23.695333333333334,152.87733333333338,313.84466666666663,3.4999999999999996,51.832666666666668,0.34999999999999981,279.21999999999997
2018-10-05,17:00,278.708,274.66733333333326,94978.899999999994,89.182666666666677,324.61033333333341,324.90633333333335,20.533666666666662,134.52166666666668,277.35433333333333,4.0966666666666658,57.189666666666668,0.34999999999999981,279.26566666666673
2018-10-05,17:30,278.729,274.89099999999996,94953.600000000006,89.393000000000001,325.32599999999996,325.36433333333332,17.940999999999995,117.36433333333333,247.63266666666672,3.8166666666666669,49.167333333333325,0.34999999999999981,279.31900000000002
2018-10-05,18:00,278.749,275.29566666666665,94925.966666666660,89.593333333333291,327.66433333333327,328.31333333333333,26.832666666666668,172.33166666666665,355.82266666666658,5.4400000000000004,91.310666666666677,0.34999999999999981,279.37299999999999
2018-10-05,18:30,278.770,275.66466666666662,94873.766666666663,89.547666666666672,329.73266666666666,330.32400000000001,27.652666666666669,178.09533333333337,367.13033333333340,4.6500000000000004,71.633333333333340,0.34999999999999981,279.44299999999998
2018-10-05,19:00,278.791,276.12500000000000,94833.766666666663,86.347000000000008,331.99000000000001,332.31900000000002,31.408000000000001,200.82633333333328,429.02166666666670,4.0633333333333335,47.066333333333340,0.34999999999999981,279.51700000000005
2018-10-05,19:30,278.812,276.48033333333336,94836.100000000006,83.307999999999993,333.39700000000011,332.91000000000003,24.183666666666664,154.54900000000004,332.56999999999994,3.5166666666666657,48.356333333333332,0.34033333333333327,279.59166666666664
2018-10-05,20:00,278.833,276.66966666666661,94805.500000000000,83.402666666666661,334.62433333333331,333.34533333333331,22.303666666666668,141.91766666666663,304.94599999999997,0.85666666666666669,7.8336666666666668,0.33999999999999991,279.66933333333327
2018-10-05,20:30,278.854,276.88799999999998,94791.933333333334,83.309000000000012,335.93900000000002,334.32733333333340,22.004333333333339,140.62966666666668,299.12333333333328,0.61999999999999988,8.1106666666666669,0.33999999999999991,279.75033333333340
2018-10-05,21:00,278.874,276.97133333333335,94765.699999999997,84.946666666666687,336.12266666666670,334.10400000000010,14.697666666666668,95.144000000000005,203.42400000000006,0.0000000000000000,0.0000000000000000,0.33999999999999991,279.82733333333346
2018-10-05,21:30,278.895,277.03566666666683,94740.233333333337,85.751666666666651,335.94966666666659,333.92933333333332,13.105666666666666,84.601666666666645,179.09533333333340,0.90000000000000002,8.7443333333333335,0.33999999999999991,279.89566666666661
2018-10-05,22:00,278.916,277.15999999999991,94742.800000000003,87.369666666666674,335.78833333333336,333.89300000000003,6.0926666666666645,40.912666666666674,89.134666666666647,0.76999999999999991,9.0440000000000005,0.33999999999999991,279.96033333333332
2018-10-05,22:30,278.937,277.22000000000008,94721.666666666672,89.042000000000002,335.99433333333337,334.33000000000004,4.1243333333333334,26.686666666666671,58.515666666666668,0.83666666666666667,10.054999999999998,0.33999999999999991,280.01633333333331
2018-10-05,23:00,278.958,277.39333333333337,94711.766666666663,89.928666666666672,336.40866666666659,334.97466666666674,2.4093333333333340,15.201999999999998,32.925333333333334,0.90666666666666673,13.989333333333333,0.33999999999999991,280.06700000000001
2018-10-05,23:30,278.979,277.54766666666688,94709.866666666669,90.551333333333318,336.89266666666674,335.73866666666669,0.81499999999999984,4.9393333333333338,10.876000000000001,0.59666666666666679,8.6109999999999989,0.33999999999999991,280.11099999999999
2018-10-06,00:00,279.000,277.70200000000000,94714.333333333328,91.141666666666708,337.59333333333331,336.69100000000003,0.14333333333333337,0.33366666666666667,0.82133333333333292,4.33333333333333348E-002,0.86666666666666670,0.33999999999999991,280.15199999999993
